Phuket, Thailand

4:16 PM ICT on February 21, 2017 (GMT +0700)
Phuket International

Weather History for VTSP - February, 2014

Change the Weather History Date:

Friday, February 28, 2014

  Actual Average Record
Temperature  
Mean Temperature 82 °F -  
Max Temperature 92 °F 92 °F 102 °F (1998)
Min Temperature 72 °F 76 °F 72 °F (2014)
Cooling Degree Days 17    
Growing Degree Days 32 (Base 50)    
Moisture  
Dew Point 66 °F    
Average Humidity 61    
Maximum Humidity 83    
Minimum Humidity 34    
Precipitation  
Precipitation 0.00 in 0.08 in - ()
Sea Level Pressure  
Sea Level Pressure 29.86 in    
Wind  
Wind Speed 5 mph ()    
Max Wind Speed 18 mph    
Max Gust Speed -    
Visibility 5.8 miles    
Events      
Averages and records for this station are not official NWS values.
T = Trace of Precipitation, MM = Missing Value Source: Averaged Metar Reports

Daily Weather History Graph

Daily Weather History Graph

Search for Another Location

Airport or City:

Trip Planner

Search our weather history database for the weather conditions in past years. The results will help you decide how hot, cold, wet, or windy it might be!

Date:

Astronomy

Feb. 28, 2014 Rise Set
Actual Time 6:40 AM ICT 6:38 PM ICT
Civil Twilight 6:19 AM ICT 6:59 PM ICT
Nautical Twilight 5:55 AM ICT 7:23 PM ICT
Astronomical Twilight 5:30 AM ICT 7:47 PM ICT
Moon 5:25 AM ICT (2/28) 5:40 PM ICT (2/28)
Length of Visible Light 12h 39m
Length of Day
11h 57m
Waning Crescent, 2% of the Moon is Illuminated
Feb 28
Waning Crescent
Mar 1
New
Mar 8
First Quarter
Mar 17
Full
Mar 24
Last Quarter

Hourly Weather History & Observations

Time (ICT) Temp. Heat Index Dew Point Humidity Pressure Visibility Wind Dir Wind Speed Gust Speed Precip Events Conditions
12:00 AM 71.6 °F - 66.2 °F 83% 29.89 in 5.0 mi Calm Calm - N/A   Mostly Cloudy
12:30 AM 71.6 °F - 66.2 °F 83% 29.89 in 5.0 mi Calm Calm - N/A   Mostly Cloudy
1:00 AM 72 °F - 68 °F 83% 29.86 in 6 mi Calm Calm - -   Mist
1:00 AM 71.6 °F - 64.4 °F 78% 29.86 in 5.0 mi East 3.5 mph - N/A   Mostly Cloudy
1:30 AM 71.6 °F - 64.4 °F 78% 29.86 in 5.0 mi NE 2.3 mph - N/A   Mostly Cloudy
2:00 AM 71.6 °F - 64.4 °F 78% 29.86 in 5.0 mi Calm Calm - N/A   Mostly Cloudy
3:00 AM 71.6 °F - 62.6 °F 73% 29.83 in 5.0 mi ESE 4.6 mph - N/A   Mostly Cloudy
4:00 AM 73 °F - 66 °F 74% 29.82 in 6 mi Calm Calm - -   Mist
4:00 AM 73.4 °F - 62.6 °F 69% 29.83 in 5.0 mi ESE 5.8 mph - N/A   Mostly Cloudy
5:00 AM 71.6 °F - 64.4 °F 78% 29.86 in 5.0 mi East 6.9 mph - N/A   Mostly Cloudy
5:30 AM 71.6 °F - 64.4 °F 78% 29.86 in 5.0 mi East 5.8 mph - N/A   Mostly Cloudy
6:00 AM 73.4 °F - 64.4 °F 73% 29.86 in 5.0 mi East 8.1 mph - N/A   Mostly Cloudy
6:30 AM 73.4 °F - 66.2 °F 78% 29.86 in 5.0 mi ESE 6.9 mph - N/A   Mostly Cloudy
7:00 AM 74 °F - 68 °F 76% 29.85 in 6 mi Calm Calm - -   Scattered Clouds
7:00 AM 75.2 °F - 64.4 °F 69% 29.86 in 5.0 mi SE 5.8 mph - N/A   Partly Cloudy
7:30 AM 77.0 °F - 64.4 °F 65% 29.89 in 5.0 mi ESE 10.4 mph - N/A   Partly Cloudy
8:00 AM 78.8 °F - 64.4 °F 61% 29.89 in 5.0 mi East 11.5 mph - N/A   Partly Cloudy
8:30 AM 78.8 °F - 64.4 °F 61% 29.92 in 6.2 mi East 11.5 mph - N/A   Partly Cloudy
9:00 AM 82.4 °F 83.9 °F 64.4 °F 54% 29.92 in 6.2 mi East 15.0 mph - N/A   Partly Cloudy
9:30 AM 82.4 °F 83.9 °F 64.4 °F 54% 29.92 in 6.2 mi East 18.4 mph - N/A   Partly Cloudy
10:00 AM 84 °F - 66 °F 46% 29.91 in 6 mi East 17.3 mph - -   Scattered Clouds
10:00 AM 84.2 °F 85.6 °F 64.4 °F 51% 29.92 in 6.2 mi East 16.1 mph - N/A   Partly Cloudy
10:30 AM 84.2 °F 86.6 °F 66.2 °F 55% 29.92 in 6.2 mi East 13.8 mph - N/A   Partly Cloudy
11:00 AM 86.0 °F 87.3 °F 64.4 °F 48% 29.92 in 6.2 mi East 12.7 mph - N/A   Partly Cloudy
11:30 AM 86.0 °F 86.6 °F 62.6 °F 45% 29.92 in 6.2 mi ENE 13.8 mph - N/A   Partly Cloudy
12:00 PM 87.8 °F 88.5 °F 62.6 °F 43% 29.89 in 6.2 mi East 15.0 mph - N/A   Partly Cloudy
12:30 PM 89.6 °F 90.1 °F 62.6 °F 40% 29.89 in 6.2 mi East 13.8 mph - N/A   Partly Cloudy
1:00 PM 90 °F - 66 °F 35% 29.87 in 6 mi ENE 12.7 mph - -   Scattered Clouds
1:00 PM 89.6 °F 90.1 °F 62.6 °F 40% 29.86 in 6.2 mi East 12.7 mph - N/A   Partly Cloudy
1:30 PM 91.4 °F 91.4 °F 60.8 °F 36% 29.83 in 6.2 mi East 12.7 mph - N/A   Partly Cloudy
2:00 PM 91.4 °F 91.4 °F 60.8 °F 36% 29.83 in 6.2 mi East 10.4 mph - N/A   Partly Cloudy
2:30 PM 91.4 °F 91.4 °F 60.8 °F 36% 29.83 in 6.2 mi East 10.4 mph - N/A   Partly Cloudy
3:00 PM 91.4 °F 90.7 °F 59.0 °F 34% 29.80 in 6.2 mi East 11.5 mph - N/A   Partly Cloudy
3:30 PM 89.6 °F 94.7 °F 69.8 °F 52% 29.80 in 6.2 mi Variable 4.6 mph - N/A   Partly Cloudy
4:00 PM 91 °F - 72 °F 44% 29.78 in 6 mi North 15.0 mph - -   Scattered Clouds
4:00 PM 86.0 °F 90.4 °F 69.8 °F 58% 29.80 in 6.2 mi NW 8.1 mph - N/A   Partly Cloudy
5:00 PM 86.0 °F 89.4 °F 68.0 °F 55% 29.80 in 6.2 mi Variable 5.8 mph - N/A   Partly Cloudy
5:30 PM 86.0 °F 89.4 °F 68.0 °F 55% 29.80 in 6.2 mi NNW 3.5 mph - N/A   Partly Cloudy
6:00 PM 84.2 °F 87.3 °F 68.0 °F 58% 29.80 in 6.2 mi NW 3.5 mph - N/A   Partly Cloudy
6:30 PM 82.4 °F 84.6 °F 66.2 °F 58% 29.83 in 6.2 mi NW 3.5 mph - N/A   Partly Cloudy
7:00 PM 85 °F - 69 °F 50% 29.80 in 6 mi Calm Calm - -   Scattered Clouds
7:00 PM 82.4 °F 84.6 °F 66.2 °F 58% 29.83 in 6.2 mi NW 3.5 mph - N/A   Scattered Clouds
7:30 PM 82.4 °F 85.4 °F 68.0 °F 62% 29.86 in 6.2 mi NW 3.5 mph - N/A   Scattered Clouds
8:00 PM 82.4 °F 85.4 °F 68.0 °F 62% 29.86 in 6.2 mi Variable 1.2 mph - N/A   Scattered Clouds
8:30 PM 80.6 °F 83.2 °F 68.0 °F 65% 29.89 in 5.6 mi Variable 1.2 mph - N/A   Scattered Clouds
9:00 PM 78.8 °F - 68.0 °F 69% 29.89 in 5.6 mi Calm Calm - N/A   Scattered Clouds
9:30 PM 77.0 °F - 68.0 °F 74% 29.89 in 5.6 mi Calm Calm - N/A   Scattered Clouds
10:00 PM 78 °F - 71 °F 72% 29.86 in 6 mi Calm Calm - -   Scattered Clouds
10:00 PM 77.0 °F - 68.0 °F 74% 29.89 in 5.6 mi Variable 2.3 mph - N/A   Scattered Clouds
10:30 PM 77.0 °F - 68.0 °F 74% 29.92 in 5.6 mi East 3.5 mph - N/A   Scattered Clouds
11:00 PM 77.0 °F - 68.0 °F 74% 29.92 in 5.6 mi Variable 2.3 mph - N/A   Scattered Clouds
11:30 PM 78.8 °F - 66.2 °F 65% 29.92 in 5.6 mi ENE 4.6 mph - N/A   Scattered Clouds